sat.trackr.live / text

‹ back to catalog

FM-5

NORAD 35493 · 2009-034A

PAYLOAD ACTIVE UNKNOWN

§ Identity

Operator
Country
US
Launch date
2009-06-30
Launch site
TYMSC
Launch vehicle
Mass (kg)
RCS (m²)
10.00

Purposes: comms

External: N2YO · Heavens-Above · Gunter

§ Orbital elements

Epoch: 2026-05-25T03:26:38.623776Z

Period
1,436.09 min
Inclination
0.0129°
Eccentricity
0.0000662
Mean motion
1.00272240 rev/d
Perigee alt
35,783.7 km
Apogee alt
35,789.3 km
Semi-major
42,164.6 km
B*
0.0000e+0
RAAN
289.0163°
Arg perigee
4.9810°
Mean anomaly
274.2471°
Rev number
4,641

§ Raw data

FM-51 35493U 09034A   26145.14350259 -.00000203  00000+0  00000+0 0  99912 35493   0.0129 289.0163 0000662   4.9810 274.2471  1.00272240 46413

JSON: /api/v1/satellites/35493 · /tle

For live sub-satellite position, see the globe view (requires WebGL).

§ Visibility from observer

Set your observer location to see the next 7 days of passes ≥ 10°. The values pass through the URL so the page stays shareable.

No JS? Fill the form by hand. The geolocation button needs JavaScript.